Location: Black Creek
(40.9000°S, 175.5500°E)
Time: 03:09:42
(UTC+00:00)

CZ-4 R/B - Pass Details

Date: 04 August 2024
Orbit: 564 x 573 km, 97.7° (Epoch: 07 September)

Event Time Altitude Azimuth Distance (km) Brightness Sun altitude
Rises 18:30:47 0° 12° (NNE) 2,779 8.3 -9.7°
Reaches altitude 10° 18:32:55 10° 11° (N) 1,887 7.4 -9.3°
Maximum altitude 18:37:01 83° 284° (WNW) 590 4.4 -8.6°
Drops below altitude 10° 18:41:10 10° 194° (SSW) 1,906 6.8 -7.8°
Sets 18:43:20 0° 193° (SSW) 2,811 7.6 -7.4°
